| time (UTC) | temp F | wind direction | speed MPH | gust MPH | rain 1hr in | rain 24hr in | rain mn in | humidity % | barometer mb |
| 20260505193521 | 66 | 21 | 12.0 | 18.0 | 0.00 | 0.08 | 0.08 | 65 | 1001.3 |
| 20260505192529 | 66 | 78 | 13.0 | 18.0 | 0.00 | 0.08 | 0.08 | 66 | 1001.2 |
| 20260505191626 | 66 | 357 | 6.0 | 12.0 | 0.00 | 0.08 | 0.08 | 67 | 1001.1 |
| 20260505190523 | 66 | 26 | 12.0 | 18.0 | 0.00 | 0.08 | 0.08 | 69 | 1001.0 |
| 20260505185523 | 67 | 121 | 13.0 | 20.0 | 0.00 | 0.08 | 0.08 | 70 | 1000.8 |
| 20260505184520 | 66 | 31 | 11.0 | 15.0 | 0.00 | 0.08 | 0.08 | 71 | 1000.8 |
| 20260505183520 | 65 | 67 | 13.0 | 18.0 | 0.00 | 0.08 | 0.08 | 74 | 1000.9 |
| 20260505182522 | 65 | 115 | 10.0 | 29.0 | 0.00 | 0.08 | 0.08 | 75 | 1000.9 |
| 20260505181523 | 66 | 303 | 10.0 | 17.0 | 0.04 | 0.08 | 0.08 | 74 | 1000.5 |
| 20260505180642 | 66 | 279 | 10.0 | 18.0 | 0.08 | 0.08 | 0.08 | 74 | 1000.4 |
| 20260505175524 | 66 | 355 | 11.0 | 20.0 | 0.08 | 0.08 | 0.08 | 74 | 1000.3 |
| 20260505174523 | 66 | 360 | 13.0 | 20.0 | 0.08 | 0.08 | 0.08 | 76 | 1000.0 |
| 20260505173532 | 66 | 351 | 14.0 | 21.0 | 0.08 | 0.08 | 0.08 | 78 | 1000.1 |
| 20260505172522 | 65 | 298 | 12.0 | 27.0 | 0.08 | 0.08 | 0.08 | 81 | 999.9 |
| 20260505171528 | 69 | 173 | 15.0 | 20.0 | 0.04 | 0.04 | 0.04 | 70 | 1000.1 |
| 20260505170525 | 72 | 348 | 10.0 | 18.0 | 0.00 | 0.00 | 0.00 | 61 | 999.6 |
| 20260505165520 | 73 | 150 | 14.0 | 30.0 | 0.00 | 0.00 | 0.00 | 60 | 999.4 |
| 20260505164533 | 74 | 46 | 17.0 | 26.0 | 0.00 | 0.00 | 0.00 | 59 | 999.4 |
| 20260505163522 | 74 | 279 | 16.0 | 27.0 | 0.00 | 0.00 | 0.00 | 59 | 999.4 |
| 20260505162711 | 74 | 146 | 15.0 | 27.0 | 0.00 | 0.00 | 0.00 | 61 | 999.2 |
| 20260505161623 | 73 | 167 | 13.0 | 18.0 | 0.00 | 0.00 | 0.00 | 64 | 999.3 |
| 20260505160529 | 72 | 220 | 12.0 | 20.0 | 0.00 | 0.00 | 0.00 | 66 | 999.2 |
| 20260505152523 | 68 | 186 | 8.0 | 15.0 | 0.00 | 0.00 | 0.00 | 71 | 999.4 |
| 20260505151525 | 68 | 143 | 8.0 | 18.0 | 0.00 | 0.00 | 0.00 | 72 | 999.4 |
| 20260505150521 | 67 | 240 | 10.0 | 17.0 | 0.00 | 0.00 | 0.00 | 73 | 999.7 |
| 20260505140534 | 62 | 291 | 9.0 | 18.0 | 0.00 | 0.00 | 0.00 | 80 | 999.7 |
| 20260505124523 | 61 | 83 | 8.0 | 12.0 | 0.00 | 0.00 | 0.00 | 80 | 999.8 |
| 20260505123529 | 61 | 164 | 8.0 | 15.0 | 0.00 | 0.00 | 0.00 | 79 | 999.8 |
| 20260505122520 | 61 | 225 | 11.0 | 18.0 | 0.00 | 0.00 | 0.00 | 79 | 999.9 |
| 20260505121521 | 61 | 201 | 10.0 | 20.0 | 0.00 | 0.00 | 0.00 | 78 | 999.9 |
| 20260505120524 | 61 | 173 | 12.0 | 21.0 | 0.00 | 0.00 | 0.00 | 78 | 999.9 |
| 20260505115524 | 61 | 62 | 9.0 | 15.0 | 0.00 | 0.00 | 0.00 | 78 | 1000.0 |
| 20260505114526 | 61 | 187 | 9.0 | 23.0 | 0.00 | 0.00 | 0.00 | 78 | 1000.0 |
| 20260505113521 | 61 | 211 | 11.0 | 20.0 | 0.00 | 0.00 | 0.00 | 78 | 999.8 |
| 20260505112529 | 60 | 182 | 9.0 | 14.0 | 0.00 | 0.00 | 0.00 | 78 | 999.7 |
| 20260505111521 | 60 | 125 | 11.0 | 21.0 | 0.00 | 0.00 | 0.00 | 78 | 999.6 |
| 20260505110520 | 60 | 46 | 10.0 | 18.0 | 0.00 | 0.00 | 0.00 | 78 | 999.5 |
| 20260505101523 | 58 | 184 | 8.0 | 12.0 | 0.00 | 0.00 | 0.00 | 78 | 999.2 |
| 20260505100529 | 58 | 171 | 9.0 | 18.0 | 0.00 | 0.00 | 0.00 | 78 | 999.2 |
| 20260505095526 | 58 | 85 | 9.0 | 15.0 | 0.00 | 0.00 | 0.00 | 78 | 999.1 |
| 20260505093527 | 58 | 145 | 10.0 | 23.0 | 0.00 | 0.02 | 0.00 | 78 | 999.0 |
| 20260505092532 | 57 | 190 | 9.0 | 23.0 | 0.00 | 0.03 | 0.00 | 77 | 999.0 |
| 20260505091524 | 57 | 148 | 6.0 | 12.0 | 0.00 | 0.04 | 0.00 | 77 | 999.1 |
| 20260505090625 | 57 | 173 | 8.0 | 17.0 | 0.00 | 0.04 | 0.00 | 77 | 999.1 |
| 20260505085643 | 57 | 179 | 9.0 | 14.0 | 0.00 | 0.04 | 0.00 | 76 | 999.3 |
| 20260505084527 | 56 | 147 | 8.0 | 15.0 | 0.00 | 0.04 | 0.00 | 76 | 999.3 |
| 20260505083523 | 56 | 174 | 10.0 | 17.0 | 0.00 | 0.04 | 0.00 | 75 | 999.4 |
| 20260505081525 | 56 | 136 | 10.0 | 17.0 | 0.00 | 0.04 | 0.00 | 72 | 999.5 |
| 20260505080522 | 56 | 201 | 5.0 | 17.0 | 0.00 | 0.04 | 0.00 | 71 | 999.7 |
| 20260505075532 | 56 | 194 | 8.0 | 15.0 | 0.00 | 0.04 | 0.00 | 70 | 999.8 |
| 20260505074521 | 56 | 198 | 3.0 | 14.0 | 0.00 | 0.04 | 0.00 | 69 | 999.8 |
| 20260505073527 | 56 | 219 | 5.0 | 8.0 | 0.00 | 0.04 | 0.00 | 69 | 999.7 |
| 20260505072530 | 56 | 197 | 6.0 | 17.0 | 0.00 | 0.04 | 0.00 | 69 | 999.8 |
| 20260505071527 | 56 | 131 | 4.0 | 12.0 | 0.00 | 0.04 | 0.00 | 70 | 999.9 |
| 20260505070524 | 56 | 142 | 2.0 | 8.0 | 0.00 | 0.04 | 0.00 | 69 | 999.9 |
| 20260505065522 | 56 | 176 | 3.0 | 9.0 | 0.00 | 0.04 | 0.00 | 69 | 999.8 |
| 20260505064630 | 56 | 178 | 5.0 | 9.0 | 0.00 | 0.04 | 0.00 | 69 | 999.8 |
| 20260505062527 | 56 | 133 | 6.0 | 14.0 | 0.00 | 0.06 | 0.00 | 70 | 1000.0 |
| 20260505061527 | 55 | 70 | 2.0 | 9.0 | 0.00 | 0.06 | 0.00 | 71 | 1000.0 |
| 20260505060520 | 56 | 181 | 5.0 | 12.0 | 0.00 | 0.06 | 0.00 | 71 | 1000.1 |
| 20260505055530 | 56 | 179 | 4.0 | 12.0 | 0.00 | 0.06 | 0.00 | 71 | 1000.1 |
| 20260505054523 | 56 | 186 | 5.0 | 12.0 | 0.00 | 0.06 | 0.00 | 70 | 1000.1 |
| 20260505053530 | 56 | 203 | 2.0 | 9.0 | 0.00 | 0.06 | 0.00 | 69 | 1000.2 |
| 20260505052519 | 56 | 164 | 4.0 | 11.0 | 0.00 | 0.06 | 0.00 | 69 | 1000.3 |
| 20260505051548 | 57 | 158 | 1.0 | 8.0 | 0.00 | 0.06 | 0.00 | 69 | 1000.5 |
| 20260505050529 | 57 | 151 | 2.0 | 8.0 | 0.00 | 0.06 | 0.00 | 69 | 1000.5 |
| 20260505041520 | 58 | 170 | 5.0 | 14.0 | 0.00 | 0.06 | 0.00 | 70 | 1000.9 |
| 20260505040528 | 58 | 195 | 5.0 | 14.0 | 0.00 | 0.06 | 0.00 | 69 | 1001.0 |
| 20260505035523 | 58 | 165 | 6.0 | 11.0 | 0.00 | 0.06 | 0.06 | 69 | 1001.1 |
| 20260505034646 | 58 | 175 | 6.0 | 12.0 | 0.00 | 0.06 | 0.06 | 69 | 1001.1 |
| 20260505033521 | 59 | 182 | 2.0 | 6.0 | 0.00 | 0.06 | 0.06 | 68 | 1001.1 |
| 20260505032521 | 59 | 201 | 3.0 | 9.0 | 0.00 | 0.06 | 0.06 | 66 | 1001.1 |
| 20260505031522 | 60 | 203 | 1.0 | 8.0 | 0.00 | 0.06 | 0.06 | 65 | 1001.2 |
| 20260505030521 | 60 | 144 | 4.0 | 11.0 | 0.00 | 0.06 | 0.06 | 65 | 1001.2 |
| 20260505025520 | 61 | 122 | 7.0 | 11.0 | 0.00 | 0.06 | 0.06 | 64 | 1001.2 |
| 20260505024537 | 61 | 113 | 3.0 | 9.0 | 0.00 | 0.06 | 0.06 | 64 | 1001.2 |
| 20260505023526 | 61 | 148 | 7.0 | 14.0 | 0.00 | 0.06 | 0.06 | 64 | 1001.2 |
| 20260505022635 | 61 | 180 | 8.0 | 14.0 | 0.00 | 0.06 | 0.06 | 66 | 1001.1 |
| 20260505021526 | 61 | 203 | 4.0 | 11.0 | 0.00 | 0.06 | 0.06 | 66 | 1001.3 |
| 20260505020531 | 62 | 195 | 8.0 | 14.0 | 0.00 | 0.06 | 0.06 | 65 | 1001.4 |
| 20260505015522 | 62 | 136 | 6.0 | 15.0 | 0.00 | 0.06 | 0.06 | 65 | 1001.3 |
| 20260505014534 | 62 | 136 | 6.0 | 14.0 | 0.00 | 0.06 | 0.06 | 65 | 1001.4 |
| 20260505013524 | 62 | 206 | 7.0 | 12.0 | 0.00 | 0.06 | 0.06 | 65 | 1001.4 |
| 20260505012523 | 63 | 188 | 6.0 | 14.0 | 0.00 | 0.06 | 0.06 | 64 | 1001.5 |
| 20260505011535 | 63 | 164 | 3.0 | 9.0 | 0.00 | 0.06 | 0.06 | 64 | 1001.4 |
| 20260505010524 | 63 | 152 | 2.0 | 11.0 | 0.00 | 0.06 | 0.06 | 63 | 1001.4 |
| 20260505005538 | 64 | 157 | 7.0 | 12.0 | 0.00 | 0.06 | 0.06 | 63 | 1001.3 |
| 20260505004522 | 64 | 189 | 6.0 | 15.0 | 0.00 | 0.06 | 0.06 | 63 | 1001.2 |
| 20260505003525 | 64 | 152 | 10.0 | 21.0 | 0.00 | 0.06 | 0.06 | 63 | 1001.1 |
| 20260505002519 | 64 | 223 | 9.0 | 14.0 | 0.00 | 0.06 | 0.06 | 62 | 1001.1 |
| 20260505001527 | 65 | 183 | 9.0 | 21.0 | 0.00 | 0.06 | 0.06 | 62 | 1001.1 |
| 20260505000534 | 65 | 155 | 8.0 | 17.0 | 0.00 | 0.06 | 0.06 | 61 | 1001.1 |
| 20260504235524 | 66 | 154 | 10.0 | 20.0 | 0.00 | 0.06 | 0.06 | 59 | 1001.0 |
| 20260504234520 | 66 | 171 | 7.0 | 15.0 | 0.00 | 0.06 | 0.06 | 58 | 1000.9 |
| 20260504233527 | 67 | 168 | 8.0 | 12.0 | 0.00 | 0.06 | 0.06 | 56 | 1000.9 |
| 20260504232520 | 67 | 117 | 8.0 | 18.0 | 0.00 | 0.06 | 0.06 | 55 | 1000.9 |
| 20260504231521 | 68 | 100 | 8.0 | 14.0 | 0.00 | 0.06 | 0.06 | 54 | 1000.9 |
| 20260504230526 | 68 | 139 | 8.0 | 14.0 | 0.00 | 0.06 | 0.06 | 53 | 1000.9 |
| 20260504225535 | 68 | 132 | 9.0 | 15.0 | 0.00 | 0.06 | 0.06 | 53 | 1000.9 |
| 20260504224519 | 69 | 176 | 10.0 | 21.0 | 0.00 | 0.06 | 0.06 | 53 | 1000.9 |
| 20260504223627 | 69 | 128 | 10.0 | 21.0 | 0.00 | 0.06 | 0.06 | 54 | 1001.0 |
| 20260504222522 | 69 | 111 | 9.0 | 20.0 | 0.00 | 0.06 | 0.06 | 53 | 1000.9 |
| 20260504221529 | 69 | 99 | 9.0 | 17.0 | 0.00 | 0.06 | 0.06 | 53 | 1001.0 |
| 20260504220520 | 70 | 122 | 7.0 | 15.0 | 0.00 | 0.06 | 0.06 | 52 | 1001.0 |
| 20260504215527 | 70 | 161 | 12.0 | 29.0 | 0.00 | 0.06 | 0.06 | 53 | 1001.2 |
| 20260504214524 | 70 | 150 | 8.0 | 14.0 | 0.00 | 0.06 | 0.06 | 53 | 1001.1 |
| 20260504213524 | 71 | 203 | 16.0 | 27.0 | 0.00 | 0.06 | 0.06 | 52 | 1001.2 |
| 20260504212527 | 71 | 89 | 11.0 | 23.0 | 0.00 | 0.06 | 0.06 | 51 | 1001.2 |
| 20260504211522 | 72 | 87 | 12.0 | 18.0 | 0.00 | 0.06 | 0.06 | 49 | 1001.1 |
| 20260504210531 | 72 | 203 | 10.0 | 18.0 | 0.00 | 0.06 | 0.06 | 50 | 1001.1 |
| 20260504205519 | 71 | 139 | 13.0 | 20.0 | 0.00 | 0.06 | 0.06 | 51 | 1001.2 |
| 20260504204539 | 71 | 67 | 15.0 | 21.0 | 0.00 | 0.06 | 0.06 | 51 | 1001.2 |
| 20260504203521 | 71 | 156 | 13.0 | 24.0 | 0.00 | 0.06 | 0.06 | 51 | 1001.2 |
| 20260504202519 | 72 | 138 | 16.0 | 26.0 | 0.00 | 0.06 | 0.06 | 51 | 1001.3 |
| 20260504201524 | 71 | 145 | 14.0 | 23.0 | 0.00 | 0.06 | 0.06 | 51 | 1001.4 |
| 20260504200522 | 72 | 167 | 12.0 | 29.0 | 0.00 | 0.06 | 0.06 | 52 | 1001.5 |
| 20260504195650 | 70 | 124 | 17.0 | 35.0 | 0.00 | 0.06 | 0.06 | 53 | 1001.7 |
| 20260504194522 | 70 | 127 | 16.0 | 26.0 | 0.00 | 0.06 | 0.06 | 52 | 1001.8 |